St. Augustine, FL

12:26 AM EST on November 17, 2019 (GMT -0500)
Saint Augustine

Weather History for KSGJ - October, 2019

Change the Weather History Date:

Wednesday, October 23, 2019

  Actual Average Record
Temperature  
Mean Temperature 67 °F -  
Max Temperature 75 °F 76 °F 87 °F (2007)
Min Temperature 61 °F 61 °F 50 °F (1988)
Cooling Degree Days 2    
Growing Degree Days 17 (Base 50)    
Moisture  
Dew Point 54 °F    
Average Humidity 57    
Maximum Humidity 71    
Minimum Humidity 46    
Precipitation  
Precipitation 0.00 in - - ()
Sea Level Pressure  
Sea Level Pressure 30.10 in    
Wind  
Wind Speed 10 mph (North)    
Max Wind Speed 17 mph    
Max Gust Speed 22 mph    
Visibility 10 miles    
Events      
Averages and records for this station are not official NWS values.
T = Trace of Precipitation, MM = Missing Value Source: NWS Daily Summary

Daily Weather History Graph

Daily Weather History Graph

Search for Another Location

Airport or City:

Astronomy

Oct. 23, 2019 Rise Set
Actual Time 7:32 AM EDT 6:46 PM EDT
Civil Twilight 7:08 AM EDT 7:10 PM EDT
Nautical Twilight 6:40 AM EDT 7:38 PM EDT
Astronomical Twilight 6:12 AM EDT 8:06 PM EDT
Moon 2:21 AM EDT (10/23) 4:07 PM EDT (10/23)
Length of Visible Light 12h 02m
Length of Day
11h 14m
Waning Crescent, 27% of the Moon is Illuminated
Oct 23
Waning Crescent
Oct 27
New
Nov 4
First Quarter
Nov 12
Full
Nov 19
Last Quarter

Hourly Weather History & Observations

Time (EDT) Temp. Dew Point Humidity Pressure Visibility Wind Dir Wind Speed Gust Speed Precip Events Conditions
12:30 AM 73.4 °F 62.6 °F 69% 30.03 in 10.0 mi NNW 10.4 mph - N/A   Overcast
12:56 AM 73.0 °F 63.0 °F 71% 30.03 in 10.0 mi NW 5.8 mph - N/A   Overcast
1:56 AM 71.1 °F 55.9 °F 59% 30.05 in 10.0 mi NNW 11.5 mph - N/A   Overcast
2:56 AM 69.1 °F 48.9 °F 49% 30.06 in 10.0 mi NNW 9.2 mph - N/A   Mostly Cloudy
3:56 AM 66.9 °F 48.0 °F 51% 30.05 in 10.0 mi NNW 9.2 mph - N/A   Mostly Cloudy
4:56 AM 66.0 °F 46.9 °F 50% 30.05 in 10.0 mi NNW 8.1 mph - N/A   Overcast
5:56 AM 63.0 °F 46.9 °F 56% 30.06 in 10.0 mi NW 8.1 mph - N/A   Scattered Clouds
6:56 AM 61.0 °F 48.0 °F 62% 30.08 in 10.0 mi NW 8.1 mph - N/A   Clear
7:56 AM 61.0 °F 48.0 °F 62% 30.09 in 10.0 mi NW 10.4 mph - N/A   Mostly Cloudy
8:56 AM 63.0 °F 50.0 °F 63% 30.12 in 10.0 mi NNW 9.2 mph - N/A   Mostly Cloudy
9:56 AM 68.0 °F 54.0 °F 61% 30.13 in 10.0 mi NNW 10.4 mph - N/A   Partly Cloudy
10:56 AM 73.0 °F 53.1 °F 49% 30.13 in 10.0 mi North 17.3 mph 21.9 mph N/A   Clear
11:56 AM 73.0 °F 51.1 °F 46% 30.14 in 10.0 mi North 16.1 mph 20.7 mph N/A   Clear
12:56 PM 73.9 °F 52.0 °F 46% 30.13 in 10.0 mi North 12.7 mph - N/A   Clear
1:56 PM 73.9 °F 52.0 °F 46% 30.12 in 10.0 mi NNE 11.5 mph - N/A   Clear
2:56 PM 73.9 °F 53.1 °F 48% 30.11 in 10.0 mi NNE 12.7 mph - N/A   Clear
3:56 PM 73.9 °F 54.0 °F 50% 30.11 in 10.0 mi NNE 13.8 mph - N/A   Clear
4:56 PM 73.0 °F 53.1 °F 49% 30.11 in 10.0 mi NNE 9.2 mph - N/A   Clear
5:56 PM 72.0 °F 54.0 °F 53% 30.12 in 10.0 mi NNE 10.4 mph - N/A   Clear
6:56 PM 71.1 °F 54.0 °F 55% 30.13 in 10.0 mi NNE 6.9 mph - N/A   Clear
7:56 PM 71.1 °F 55.0 °F 57% 30.14 in 10.0 mi NNE 8.1 mph - N/A   Clear
8:56 PM 71.1 °F 55.9 °F 59% 30.14 in 10.0 mi NE 8.1 mph - N/A   Clear
9:56 PM 71.1 °F 57.9 °F 63% 30.15 in 10.0 mi NE 8.1 mph - N/A   Clear
10:56 PM 72.0 °F 61.0 °F 68% 30.15 in 10.0 mi NE 8.1 mph - N/A   Clear
11:56 PM 73.0 °F 63.0 °F 71% 30.14 in 10.0 mi ENE 9.2 mph - N/A   Mostly Cloudy